• Join FlightAware (Why Join?)
  • Login
  • US Flag 
09:07PM EDT


 

Airport Tracker/Info


-or-


 

Live Flight TrackerFlight Track Log ✈ SKW6345 ✈ 02-May-2013 ✈ KDEN - KPHX

Flight Track Log - Related Links

Times and Time Zones

All times are in EDT time to prevent confusion due to time zone crossing. See the SKW6345 flight status page for this flight to view local times or setup timezone preferences in your user account.

Time Position Orientation Groundspeed Altitude Reporting Facility
EDT Latitude Longitude Course Direction KTS MPH feet Rate Location/Type
11:29AM 39.8333 -104.7667 233° Southwest 186 214 6,900  Level Denver TRACON
11:30AM 39.8167 -104.8333 252° West 234 269 8,900 2,220 Climbing Denver TRACON
11:31AM 39.7833 -104.9167 243° Southwest 261 300 11,400 2,400 Climbing Denver TRACON
11:32AM 39.5504 -104.4609 207° Southwest  Level FlightAware Approximate
11:32AM 39.7697 -104.9392 232° Southwest 260 299 12,000  Level Denver Center
11:33AM 39.4429 -104.5405 218° Southwest  Level FlightAware Approximate
11:33AM 39.6892 -104.9644 194° South 305 351 13,700  Level Denver Center
11:34AM 39.3593 -104.6579 233° Southwest  Level FlightAware Approximate
11:34AM 39.5889 -104.9836 188° South 339 390 16,000  Level Denver Center
11:35AM 39.2842 -104.7867 233° Southwest  Level FlightAware Approximate
11:35AM 39.4936 -105.0000 188° South 349 402 18,300  Level Denver Center
11:36AM 39.3864 -105.0181 187° South 361 415 19,400 1,200 Climbing Denver Center
11:37AM 39.2794 -105.0383 188° South 387 445 20,900 1,560 Climbing Denver Center
11:38AM 39.1581 -105.0569 187° South 406 467 22,700 1,500 Climbing Denver Center
11:39AM 39.0647 -105.1131 205° Southwest 411 473 24,000 1,380 Climbing Denver Center
11:40AM 38.9481 -105.1869 206° Southwest 418 481 25,600 1,320 Climbing Denver Center
11:41AM 38.8467 -105.2511 206° Southwest 421 484 26,800 1,200 Climbing Denver Center
11:42AM 38.7236 -105.3292 206° Southwest 437 503 28,200 1,320 Climbing Denver Center
11:43AM 38.6161 -105.3964 206° Southwest 445 512 29,600 1,440 Climbing Denver Center
11:44AM 38.4903 -105.4772 207° Southwest 451 519 31,200 1,380 Climbing Denver Center
11:45AM 38.3842 -105.5447 207° Southwest 448 516 32,500 1,380 Climbing Denver Center
11:46AM 38.2650 -105.6203 206° Southwest 436 502 34,100 1,140 Climbing Denver Center
11:47AM 38.1636 -105.6828 206° Southwest 427 491 34,900 480 Climbing Denver Center
11:48AM 38.0414 -105.7583 206° Southwest 434 499 35,100 360 Climbing Denver Center
11:49AM 37.9533 -105.8522 220° Southwest 433 498 35,700 780 Climbing Denver Center
11:50AM 37.8611 -105.9711 226° Southwest 425 489 36,800 720 Climbing Denver Center
11:51AM 37.7806 -106.0731 225° Southwest 426 490 37,300 420 Climbing Denver Center
11:52AM 37.6939 -106.1817 225° Southwest 433 498 37,700 300 Climbing Denver Center
11:53AM 37.5989 -106.3008 225° Southwest 431 496 38,000 120 Climbing Denver Center
11:55AM 37.4894 -106.4394 225° Southwest 436 502 38,000  Level Denver Center
11:56AM 37.4100 -106.5394 225° Southwest 424 488 38,000  Level Denver Center
11:57AM 37.3181 -106.6558 225° Southwest 419 482 38,000  Level Denver Center
11:58AM 37.2353 -106.7556 224° Southwest 428 493 38,000  Level Denver Center
11:59AM 37.1550 -106.8556 225° Southwest 425 489 38,000  Level Denver Center
12:00PM 37.0594 -106.9769 225° Southwest 437 503 38,000  Level Denver Center
12:01PM 36.9756 -107.0772 224° Southwest 437 503 38,000  Level Denver Center
12:02PM 36.8792 -107.1964 225° Southwest 436 502 38,000  Level Denver Center
12:03PM 36.7964 -107.2986 225° Southwest 437 503 38,000  Level Denver Center
12:04PM 36.7022 -107.4147 225° Southwest 426 490 38,000  Level Denver Center
12:05PM 36.6211 -107.5117 224° Southwest 423 487 38,000  Level Denver Center
12:06PM 36.5267 -107.6261 224° Southwest 424 488 38,000  Level Denver Center
12:07PM 36.4447 -107.7244 224° Southwest 426 490 38,000  Level Denver Center
12:08PM 36.3492 -107.8419 225° Southwest 428 493 38,000  Level Albuquerque Center
12:09PM 36.2667 -107.9403 224° Southwest 430 495 38,000  Level Denver Center
12:10PM 36.1692 -108.0567 224° Southwest 433 498 38,000  Level Denver Center
12:11PM 36.0858 -108.1567 224° Southwest 433 498 38,000  Level Albuquerque Center
12:12PM 35.9872 -108.2728 224° Southwest 435 501 38,000  Level Albuquerque Center
12:13PM 35.9033 -108.3728 224° Southwest 435 501 38,000  Level Albuquerque Center
12:14PM 35.8186 -108.4725 224° Southwest 436 502 38,000  Level Albuquerque Center
12:15PM 35.7189 -108.5889 223° Southwest 437 503 38,000 -300 Level Albuquerque Center
12:16PM 35.6347 -108.6892 224° Southwest 438 504 37,500 -840 Descending Albuquerque Center
12:17PM 35.5367 -108.8036 224° Southwest 435 501 36,300 -780 Descending Albuquerque Center
12:18PM 35.4531 -108.9006 223° Southwest 432 497 36,000 -180 Descending Albuquerque Center
12:19PM 35.3625 -109.0211 227° Southwest 427 491 36,000  Level Albuquerque Center
12:20PM 35.2825 -109.1253 227° Southwest 434 499 36,000  Level Albuquerque Center
12:22PM 35.2025 -109.2269 226° Southwest 434 499 36,000  Level Albuquerque Center
12:23PM 35.1106 -109.3447 226° Southwest 428 493 36,000  Level Albuquerque Center
12:24PM 35.0314 -109.4486 227° Southwest 433 498 36,000  Level Albuquerque Center
12:25PM 34.9350 -109.5636 224° Southwest 433 498 36,000  Level Albuquerque Center
12:26PM 34.8547 -109.6686 227° Southwest 439 505 36,000  Level Albuquerque Center
12:27PM 34.7586 -109.7917 226° Southwest 446 513 36,000 -300 Level Albuquerque Center
12:28PM 34.6914 -109.9078 235° Southwest 442 509 35,400 -900 Descending Albuquerque Center
12:29PM 34.6375 -110.0514 246° West 423 487 34,200 -1,080 Descending Albuquerque Center
12:30PM 34.5922 -110.1719 246° West 415 478 33,200 -1,080 Descending Albuquerque Center
12:31PM 34.5392 -110.3136 246° West 413 475 32,000 -600 Descending Albuquerque Center
12:32PM 34.4936 -110.4317 245° Southwest 407 468 32,000 -540 Level Albuquerque Center
12:33PM 34.4478 -110.5542 246° West 413 475 31,000 -1,320 Descending Albuquerque Center
12:34PM 34.3917 -110.7031 245° Southwest 428 493 29,300 -1,800 Descending Albuquerque Center
12:35PM 34.3297 -110.8269 239° Southwest 435 501 27,400 -2,040 Descending Albuquerque Center
12:36PM 34.2556 -110.9244 227° Southwest 403 464 25,200 -2,040 Descending Albuquerque Center
12:37PM 34.1822 -111.0181 227° Southwest 392 451 23,200 -2,040 Descending Albuquerque Center
12:38PM 34.1103 -111.1103 227° Southwest 386 444 21,000 -2,220 Descending Albuquerque Center
12:39PM 34.0247 -111.2206 227° Southwest 381 438 18,700 -1,980 Descending Albuquerque Center
12:40PM 33.9583 -111.3056 227° Southwest 359 413 17,000 -1,740 Descending Albuquerque Center
12:41PM 33.8894 -111.3919 226° Southwest 334 384 15,200 -1,440 Descending Albuquerque Center
12:42PM 33.8392 -111.4811 236° Southwest 323 372 14,100 -1,380 Descending Albuquerque Center
12:43PM 33.7917 -111.5717 238° Southwest 321 369 12,400 -1,800 Descending Albuquerque Center
12:44PM 33.7425 -111.6664 238° Southwest 312 359 10,500 -1,260 Descending Albuquerque Center
12:45PM 33.6989 -111.7481 237° Southwest 293 337 9,900 -720 Descending Albuquerque Center
12:46PM 33.6569 -111.8239 236° Southwest 258 297 9,100 -480 Descending Albuquerque Center
12:47PM 33.6200 -111.8908 236° Southwest 244 281 9,000 -360 Descending Albuquerque Center
12:48PM 33.5842 -111.9581 237° Southwest 226 260 8,400 -780 Descending Albuquerque Center
12:49PM 33.5531 -112.0178 238° Southwest 214 246 7,400 -1,020 Descending Albuquerque Center
12:51PM 33.5253 -112.1506 256° West 205 236 5,300 -780 Descending Albuquerque Center
12:53PM 33.5211 -112.2233 266° West 206 237 5,000 -540 Descending Albuquerque Center
12:54PM 33.4686 -112.2361 191° South 198 228 4,200 -720 Descending Albuquerque Center
12:55PM 33.4406 -112.1817 122° Southeast 177 204 3,600 -600 Descending Albuquerque Center